Weather History for Reno - Stead, NV

Change the Weather History Date:

Wednesday, March 6, 2013

  Actual Average (KRNO) Record (KRNO)
Temperature  
Mean Temperature 34 °F 44 °F  
Max Temperature 42 °F 56 °F 75 °F (1972)
Min Temperature 26 °F 32 °F 11 °F (1971)
Degree Days  
Heating Degree Days 31 21  
Month to date heating degree days 128  
Since 1 July heating degree days 3766  
Cooling Degree Days 0 0  
Month to date cooling degree days 0  
Year to date cooling degree days 0  
Moisture  
Dew Point 21 °F    
Average Humidity 59    
Maximum Humidity 93    
Minimum Humidity 39    
Precipitation  
Precipitation 0.00 in 0.03 in 0.39 in (1918)
Month to date precipitation 0.21  
Year to date precipitation 2.26  
Snow  
Snow 0.00 in 0.10 in 2.80 in (1918)
Month to date snowfall 0.7  
Since 1 July snowfall 19.7  
Snow Depth -    
Sea Level Pressure  
Sea Level Pressure 29.85 in    
Wind  
Wind Speed 24 mph (WSW)    
Max Wind Speed 43 mph    
Max Gust Speed 60 mph    
Visibility 9 miles    
Events Rain , Snow    
T = Trace of Precipitation, MM = Missing Value Source: NWS Daily Summary

Daily Weather History Graph

Daily Weather History Graph

Search for Another Location

Airport:

Trip Planner

Search our weather history database for the weather conditions in past years. The results will help you decide how hot, cold, wet, or windy it might be!

Date:

Astronomy

Mar. 06, 2013 Rise Set
Actual Time 6:24 AM PST 5:57 PM PST
Civil Twilight 5:57 AM PST 6:24 PM PST
Nautical Twilight 5:26 AM PST 6:55 PM PST
Astronomical Twilight 4:55 AM PST 7:26 PM PST
Moon 2:37 AM PST (3/6) 12:45 PM PST (3/6)
Length of Visible Light 12h 26m
Length of Day
11h 32m
Waning Crescent, 29% of the Moon is Illuminated
Mar 6
Waning Crescent
Mar 11
New
Mar 19
First Quarter
Mar 27
Full
Apr 2
Last Quarter

Hourly Weather History & Observations

Time (PST) Temp. Windchill Dew Point Humidity Pressure Visibility Wind Dir Wind Speed Gust Speed Precip Events Conditions
12:10 AM 42.8 °F 33.8 °F 26.6 °F 53% 29.73 in 10.0 mi SSW 21.9 mph 29.9 mph N/A   Mostly Cloudy
12:35 AM 41.0 °F 29.5 °F 24.8 °F 53% 29.72 in 10.0 mi SW 32.2 mph 46.0 mph N/A   Scattered Clouds
12:50 AM 39.2 °F 26.1 °F 24.8 °F 56% 29.71 in 10.0 mi SSW 38.0 mph 47.2 mph N/A   Clear
1:10 AM 39.2 °F 26.6 °F 24.8 °F 56% 29.71 in 10.0 mi SSW 34.5 mph 43.7 mph N/A   Clear
1:35 AM 39.2 °F 27.2 °F 23.0 °F 52% 29.72 in 10.0 mi SSW 31.1 mph 51.8 mph N/A   Clear
1:50 AM 37.4 °F 25.6 °F 24.8 °F 60% 29.72 in 10.0 mi SSW 26.5 mph 42.6 mph N/A   Scattered Clouds
2:10 AM 37.4 °F 24.4 °F 24.8 °F 60% 29.70 in 10.0 mi SSW 33.4 mph 43.7 mph N/A   Mostly Cloudy
2:30 AM 37.4 °F 24.4 °F 26.6 °F 65% 29.71 in 10.0 mi SSW 33.4 mph 44.9 mph N/A   Mostly Cloudy
2:50 AM 37.4 °F 26.9 °F 28.4 °F 70% 29.71 in 9.0 mi SSW 20.7 mph 36.8 mph N/A Rain Light Rain
3:10 AM 35.6 °F 23.4 °F 28.4 °F 75% 29.70 in 9.0 mi SSW 25.3 mph 33.4 mph N/A   Mostly Cloudy
3:30 AM 39.2 °F 26.6 °F 24.8 °F 56% 29.69 in 10.0 mi SW 34.5 mph 49.5 mph N/A   Partly Cloudy
3:50 AM 37.4 °F 23.0 °F 26.6 °F 65% 29.71 in 5.0 mi SSW 42.6 mph 59.8 mph N/A Snow Light Snow
4:10 AM 37.4 °F 23.8 °F 26.6 °F 65% 29.69 in 10.0 mi SW 36.8 mph 48.3 mph N/A   Mostly Cloudy
4:30 AM 35.6 °F 22.1 °F 28.4 °F 75% 29.70 in 4.0 mi SW 32.2 mph 49.5 mph N/A Snow Light Snow
4:50 AM 37.4 °F 24.6 °F 28.4 °F 70% 29.70 in 5.0 mi SW 32.2 mph 46.0 mph N/A Snow Light Snow
5:10 AM 35.6 °F 22.7 °F 28.4 °F 75% 29.71 in 5.0 mi SSW 28.8 mph 36.8 mph N/A Snow Light Snow
5:35 AM 35.6 °F 24.8 °F 26.6 °F 70% 29.71 in 5.0 mi SSW 19.6 mph 43.7 mph N/A   Haze
6:10 AM 33.8 °F 22.8 °F 28.4 °F 81% 29.72 in 3.0 mi SSW 18.4 mph 28.8 mph N/A Snow Light Snow
6:30 AM 35.6 °F 24.5 °F 26.6 °F 70% 29.74 in 7.0 mi SW 20.7 mph 27.6 mph N/A Snow Light Snow
6:50 AM 33.8 °F 25.8 °F 30.2 °F 87% 29.76 in 1.5 mi WSW 10.4 mph - N/A Snow Light Snow
7:10 AM 32.0 °F 23.6 °F 30.2 °F 93% 29.78 in 1.0 mi WSW 10.4 mph - N/A Snow Light Snow
7:30 AM 32.0 °F 19.5 °F 28.4 °F 87% 29.77 in 2.5 mi WSW 21.9 mph 35.7 mph N/A Snow Light Snow
7:50 AM 35.6 °F 24.5 °F 24.8 °F 65% 29.78 in 6.0 mi WSW 20.7 mph 38.0 mph N/A Rain Light Rain
8:15 AM 32.0 °F 19.5 °F 28.4 °F 87% 29.82 in 0.2 mi WSW 21.9 mph 31.1 mph N/A Snow Heavy Snow
8:55 AM 32.0 °F 16.7 °F 23.0 °F 69% 29.84 in 3.0 mi WSW 34.5 mph 43.7 mph N/A Snow Light Snow
9:10 AM 32.0 °F 18.1 °F 21.2 °F 64% 29.84 in 9.0 mi WSW 27.6 mph 40.3 mph N/A Rain Light Rain
9:30 AM 33.8 °F 19.9 °F 21.2 °F 60% 29.84 in 10.0 mi SW 31.1 mph 46.0 mph N/A   Clear
9:50 AM 35.6 °F 22.5 °F 19.4 °F 52% 29.86 in 10.0 mi WSW 29.9 mph 42.6 mph N/A   Clear
10:15 AM 33.8 °F 19.6 °F 24.8 °F 70% 29.87 in 10.0 mi West 32.2 mph 40.3 mph N/A Rain Light Rain
10:55 AM 35.6 °F 23.0 °F 23.0 °F 60% 29.90 in 8.0 mi WSW 27.6 mph 38.0 mph N/A Rain Light Rain
11:10 AM 33.8 °F 21.3 °F 23.0 °F 65% 29.91 in 7.0 mi WSW 24.2 mph 31.1 mph N/A Rain Light Rain
11:30 AM 37.4 °F 26.9 °F 19.4 °F 48% 29.91 in 10.0 mi WSW 20.7 mph 39.1 mph N/A   Clear
11:55 AM 37.4 °F 24.6 °F 19.4 °F 48% 29.92 in 8.0 mi WSW 32.2 mph 42.6 mph N/A Rain Light Rain
12:10 PM 37.4 °F 25.6 °F 21.2 °F 52% 29.91 in 10.0 mi WSW 26.5 mph 40.3 mph N/A Rain Light Rain
12:35 PM 37.4 °F 25.2 °F 19.4 °F 48% 29.91 in 10.0 mi West 28.8 mph 38.0 mph N/A   Clear
12:50 PM 37.4 °F 26.9 °F 21.2 °F 52% 29.91 in 10.0 mi West 20.7 mph 32.2 mph N/A   Clear
1:10 PM 39.2 °F 28.5 °F 17.6 °F 42% 29.91 in 10.0 mi WSW 24.2 mph 44.9 mph N/A   Clear
1:30 PM 39.2 °F 28.7 °F 17.6 °F 42% 29.91 in 10.0 mi West 23.0 mph 31.1 mph N/A   Clear
1:50 PM 39.2 °F 28.3 °F 15.8 °F 39% 29.92 in 10.0 mi WSW 25.3 mph 33.4 mph N/A   Partly Cloudy
2:10 PM 37.4 °F 25.0 °F 17.6 °F 45% 29.91 in 10.0 mi WSW 29.9 mph 40.3 mph N/A   Clear
2:35 PM 39.2 °F 28.0 °F 15.8 °F 39% 29.91 in 10.0 mi WSW 26.5 mph 38.0 mph N/A   Clear
2:55 PM 39.2 °F 28.0 °F 15.8 °F 39% 29.90 in 10.0 mi WSW 26.5 mph 36.8 mph N/A   Clear
3:10 PM 39.2 °F 28.7 °F 15.8 °F 39% 29.91 in 10.0 mi WSW 23.0 mph 32.2 mph N/A   Clear
3:30 PM 39.2 °F 29.6 °F 15.8 °F 39% 29.92 in 10.0 mi WSW 19.6 mph 28.8 mph N/A   Clear
3:50 PM 37.4 °F 28.2 °F 19.4 °F 48% 29.93 in 10.0 mi WSW 16.1 mph 20.7 mph N/A   Clear
4:10 PM 37.4 °F 28.5 °F 15.8 °F 41% 29.93 in 10.0 mi WSW 15.0 mph 19.6 mph N/A   Clear
4:30 PM 35.6 °F 27.1 °F 17.6 °F 48% 29.94 in 10.0 mi WSW 12.7 mph 21.9 mph N/A   Partly Cloudy
4:50 PM 35.6 °F 27.5 °F 17.6 °F 48% 29.94 in 10.0 mi WSW 11.5 mph 19.6 mph N/A   Clear
5:10 PM 35.6 °F 25.5 °F 17.6 °F 48% 29.92 in 10.0 mi WSW 17.3 mph 24.2 mph N/A   Clear
5:30 PM 35.6 °F 24.2 °F 17.6 °F 48% 29.91 in 10.0 mi WSW 21.9 mph 31.1 mph N/A   Clear
5:50 PM 33.8 °F 23.5 °F 15.8 °F 48% 29.91 in 10.0 mi SW 16.1 mph 27.6 mph N/A   Clear
6:10 PM 32.0 °F 24.8 °F 15.8 °F 51% 29.92 in 10.0 mi East 8.1 mph - N/A   Partly Cloudy
6:30 PM 32.0 °F 24.2 °F 17.6 °F 55% 29.93 in 10.0 mi NE 9.2 mph - N/A   Mostly Cloudy
6:50 PM 32.0 °F 27.5 °F 17.6 °F 55% 29.95 in 10.0 mi SSW 4.6 mph - N/A   Overcast
7:10 PM 33.8 °F 22.2 °F 14.0 °F 44% 29.93 in 10.0 mi West 20.7 mph 38.0 mph N/A   Scattered Clouds
7:30 PM 32.0 °F 18.9 °F 17.6 °F 55% 29.91 in 10.0 mi WSW 24.2 mph 31.1 mph N/A   Clear
7:50 PM 32.0 °F 20.1 °F 17.6 °F 55% 29.92 in 10.0 mi WSW 19.6 mph 33.4 mph N/A   Clear
8:10 PM 32.0 °F 20.5 °F 17.6 °F 55% 29.92 in 10.0 mi WSW 18.4 mph 25.3 mph N/A   Clear
8:30 PM 32.0 °F 26.4 °F 19.4 °F 60% 29.94 in 10.0 mi NNW 5.8 mph 19.6 mph N/A   Clear
8:50 PM 32.0 °F 25.6 °F 17.6 °F 55% 29.94 in 10.0 mi NW 6.9 mph - N/A   Partly Cloudy
9:10 PM 32.0 °F 21.2 °F 19.4 °F 60% 29.95 in 10.0 mi WSW 16.1 mph 21.9 mph N/A   Clear
9:30 PM 32.0 °F 24.2 °F 19.4 °F 60% 29.96 in 10.0 mi NW 9.2 mph - N/A   Clear
9:50 PM 28.4 °F 17.5 °F 19.4 °F 69% 29.95 in 10.0 mi WNW 13.8 mph - N/A   Clear
10:10 PM 30.2 °F 21.3 °F 19.4 °F 64% 29.95 in 10.0 mi West 10.4 mph - N/A   Clear
10:30 PM 28.4 °F 22.2 °F 17.6 °F 64% 29.96 in 10.0 mi North 5.8 mph - N/A   Clear
10:55 PM 26.6 °F 19.1 °F 17.6 °F 69% 29.96 in 10.0 mi NNW 6.9 mph - N/A   Clear
11:10 PM 28.4 °F 23.3 °F 17.6 °F 64% 29.95 in 10.0 mi WNW 4.6 mph - N/A   Clear
11:30 PM 26.6 °F 20.0 °F 17.6 °F 69% 29.95 in 10.0 mi NW 5.8 mph - N/A   Clear
11:50 PM 26.6 °F - 17.6 °F 69% 29.94 in 10.0 mi Calm Calm - N/A   Clear